{"data":{"norad_id":53792,"epoch":"2026-09-20T06:39:17.227008Z","epoch_age_seconds":103393,"freshness":"FRESH","line1":"1 53792U 22111V   26263.27728272 -.00002951  00000+0 -83334-4 0  9992","line2":"2 53792  53.1606 107.2008 0000873 100.0912 260.0188 15.31719096223248","mean_motion":15.31719096,"eccentricity":8.73e-5,"inclination_deg":53.1606,"raan_deg":107.2008,"arg_perigee_deg":100.0912,"mean_anomaly_deg":260.0188,"bstar":-8.3334e-5,"rev_number":22324,"period_min":94.012015895113,"perigee_km":470.08516964247,"apogee_km":471.28097362697,"semimajor_km":6848.8200716347,"source":"CELESTRAK","updated_at":"2026-09-21T09:00:32.994182Z"}}